STARLINK-1199 (45201 NORAD) Tracking and Keplerian Element Data

This shows tracking and keplerian element data for the satellite.

Feedback or suggestion? Click here.




ElementValue
Catalog45201
NameSTARLINK-1199
Epoch Orbit657
Epoch Day88.25001157
Epoch Year2020
RAAN72.2827
Inclination52.999
Eccentricity0.0008209
Argument of Perigee302.0053
Mean Anonmoly231.1411
Mean Motion15.62747807
Decay Rate5.506E-05
L11 45201U 20012Z 20088.25001157 .00005506 00000-0 65923-4 0 9991
L22 45201 52.9990 72.2827 0008209 302.0053 231.1411 15.62747807 6576

Live tracking and technical data element details for STARLINK-1199 (NORAD 45201). STARLINK-1199 can be tracked NOW for your location showing map with azimuth and elevation plus other details from your city location.

Track the satellite on the map from your city or location and see movement details for azimuth, elevation, latitude, longitude, range, height, and movement on the map or in text.







IsCatalogInMostPopularTable: catalog: 45201, numindb: 6
Update: records affected: 1



GetName: 45201 STARLINK-1199

Hit Count: updated at: Tue, 31 Mar 2020 13:47:26 GMT